#timestamp,LO_Frequency,Hit 
1499364015.8,286046969.0,N
1499364035.7,286046964.9,N
1499364055.5,286046966.9,N
1499364075.3,286046966.5,N
1499364095.2,286046968.2,N
1499364115.0,286046968.0,N
1499364115.9,286046968.0,N
1499364135.7,286046970.6,N
1499364155.6,286046970.8,N
1499364175.4,286046970.2,N
1499364195.2,286046968.4,N
1499364215.1,286046970.0,N
1499364216.0,286046970.0,N
1499364235.8,286046970.1,N
1499364255.6,286046968.1,N
1499364275.5,286046970.6,N
1499364295.3,286046969.5,N
1499364315.1,286046970.1,N
1499364335.9,286046970.3,N
1499364355.7,286046970.3,N
1499364375.5,286046968.2,N
1499364395.4,286046968.0,N
1499364415.2,286046970.6,N
1499364435.0,286046968.1,N
1499364435.9,286046968.1,N
1499364455.8,286046967.9,N
1499364475.6,286046967.9,N
1499364495.4,286046968.2,N
1499364515.2,286046970.5,N
1499364535.1,286046970.5,N
1499364536.0,286046970.5,N
1499364555.8,286046970.1,N
1499364575.6,286046970.4,N
1499364595.5,286046970.1,N
1499364615.3,286046969.7,N
1499364635.1,286046968.1,N
1499364655.9,286046970.6,N
1499364675.7,286046970.0,N
1499364695.5,286046972.0,N
1499364715.4,286046969.7,N
1499364735.2,286046970.0,N
1499364755.0,286046972.4,N
1499364755.9,286046972.4,N
1499364775.8,286046969.6,N
1499364795.6,286046969.6,N
1499364815.4,286046969.5,N
1499364835.3,286046967.7,N
1499364855.1,286046970.2,N
1499364856.0,286046970.2,N
1499364875.8,286046972.4,N
1499364895.7,286046972.2,N
1499364915.5,286046972.0,N
1499364935.3,286046971.6,N
1499364955.1,286046971.9,N
1499364975.9,286046969.9,N
1499364995.7,286046970.5,N
1499365015.5,286046969.5,N
1499365035.4,286046969.6,N
1499365055.2,286046971.7,N
1499365075.0,286046972.2,N
1499365075.9,286046972.2,N
1499365095.8,286046971.8,N
1499365115.6,286046972.2,N
1499365135.4,286046969.4,N
1499365155.3,286046971.8,N
1499365175.1,286046972.0,N
1499365176.0,286046972.0,N
1499365195.8,286046971.3,N
1499365215.7,286046971.5,N
1499365235.5,286046974.0,N
1499365255.3,286046971.4,N
1499365275.1,286046970.9,N
1499365295.9,286046971.6,N
1499365315.7,286046973.7,N
1499365335.5,286046972.6,N
1499365355.4,286046973.8,N
1499365375.2,286046972.8,N
1499365395.0,286046975.2,N
1499365395.9,286046975.2,N
1499365415.8,286046973.7,N
1499365435.6,286046973.3,N
1499365455.4,286046971.3,N
1499365475.3,286046973.6,N
1499365495.1,286046973.8,N
1499365496.0,286046973.8,N
1499365515.8,286046973.4,N
1499365535.7,286046973.2,N
1499365555.5,286046972.5,N
1499365575.3,286046975.5,N
1499365595.2,286046972.7,N
1499365615.9,286046973.4,N
1499365635.7,286046972.5,N
1499365655.6,286046973.7,N
1499365675.4,286046972.6,N
1499365695.2,286046974.7,N
1499365715.0,286046974.6,N
1499365715.9,286046974.6,N
1499365735.8,286046975.4,N
1499365755.6,286046974.9,N
1499365775.4,286046974.2,N
1499365795.3,286046974.5,N
1499365815.1,286046974.2,N
1499365816.0,286046974.2,N
1499365835.8,286046974.1,N
1499365855.7,286046975.5,N
1499365875.5,286046975.2,N
1499365895.3,286046974.5,N
1499365915.2,286046974.3,N
1499365935.9,286046976.4,N
1499365955.7,286046976.9,N
1499365975.5,286046974.2,N
1499365995.4,286046975.1,N
1499366015.2,286046976.6,N
1499366035.0,286046978.4,N
1499366035.9,286046978.4,N
1499366055.8,286046974.6,N
1499366075.6,286046978.3,N
1499366095.4,286046978.1,N
1499366115.3,286046976.3,N
1499366135.1,286046976.0,N
1499366155.8,286046978.3,N
1499366175.7,286046975.7,N
1499366195.5,286046975.7,N
1499366215.3,286046980.1,N
1499366235.2,286046977.5,N
1499366255.9,286046977.6,N
1499366275.7,286046977.8,N
1499366295.6,286046977.5,N
1499366315.4,286046978.1,N
1499366335.2,286046980.0,N
1499366355.0,286046977.8,N
1499366356.0,286046977.8,N
1499366375.8,286046978.0,N
1499366395.6,286046979.1,N
1499366415.4,286046981.6,N
1499366435.3,286046981.8,N
1499366455.1,286046982.0,N
1499366475.8,286046982.0,N
1499366495.7,286046979.2,N
1499366515.5,286046979.8,N
1499366535.3,286046979.2,N
1499366555.2,286046981.8,N
1499366575.9,286046981.4,N
1499366595.7,286046980.7,N
1499366615.6,286046980.8,N
1499366635.4,286046983.5,N
1499366655.2,286046980.5,N
1499366675.1,286046983.5,N
1499366676.0,286046983.5,N
1499366695.8,286046981.7,N
1499366715.6,286046981.7,N
1499366735.5,286046981.5,N
1499366755.3,286046981.6,N
1499366775.1,286046981.4,N
1499366795.8,286046981.6,N
1499366815.7,286046980.8,N
1499366835.5,286046983.6,N
1499366855.3,286046983.6,N
1499366875.2,286046980.5,N
1499366895.0,286046982.7,N
1499366895.9,286046982.7,N
1499366915.7,286046982.3,N
1499366935.6,286046983.5,N
1499366955.4,286046981.8,N
1499366975.2,286046981.3,N
1499366995.1,286046982.8,N
1499366996.0,286046982.8,N
1499367015.8,286046983.2,N
1499367035.6,286046983.3,N
1499367055.5,286046982.6,N
1499367075.3,286046982.4,N
1499367095.1,286046985.1,N
1499367115.9,286046982.7,N
1499367135.7,286046985.2,N
1499367155.5,286046983.7,N
1499367175.3,286046986.8,N
1499367195.2,286046986.4,N
1499367215.0,286046983.9,N
1499367215.9,286046983.9,N
1499367235.7,286046986.7,N
1499367255.6,286046984.0,N
1499367275.4,286046986.8,N
1499367295.2,286046983.7,N
1499367315.1,286046985.5,N
1499367316.0,286046985.5,N
1499367335.8,286046985.3,N
1499367355.6,286046988.3,N
1499367375.5,286046987.7,N
1499367395.3,286046985.9,N
1499367415.1,286046987.5,N
1499367435.9,286046988.1,N
1499367455.7,286046987.0,N
1499367475.5,286046988.1,N
1499367495.4,286046987.3,N
1499367515.2,286046989.0,N
1499367535.0,286046988.8,N
1499367535.9,286046988.8,N
1499367555.8,286046989.1,N
1499367575.6,286046989.8,N
1499367595.4,286046988.5,N
